Temperature
17 16 16 16 16 16 16 16 16 17 17 17 16 17 17 17 17 17 17 18 18 18 18 18 18 17 17 17 17 18 18 18 18 18 18 17 17 17 17 17 17 17 17
16 16 16 16 16 16 16 16 16 16 16 16 16 16 16 16 17 17 17 17 17 18 18 18 18 18 17 17 17 17 17 18 18 18 18 18 17 17 17 17 17 17 17
16 15 15 15 15 15 16 16 16 16 16 16 16 16 16 16 16 16 17 17 17 17 18 18 18 18 18 17 17 17 17 17 18 18 18 18 17 17 17 17 17 17 17
15 15 15 15 15 15 15 15 15 15 15 15 15 16 16 16 16 16 16 16 17 17 17 17 17 17 18 17 17 17 17 17 17 17 18 18 18 17 17 17 17 17 17
14 14 14 14 14 14 14 14 15 15 15 15 15 15 15 15 15 16 16 16 16 17 17 17 17 17 17 17 17 17 17 17 17 17 17 17 17 17 17 17 17 17 17
14 14 14 14 14 14 14 14 14 14 14 14 14 15 15 15 15 15 16 16 16 16 17 17 17 17 17 17 17 17 17 17 17 17 17 17 17 17 17 17 17 17 17
13 13 13 13 13 13 13 13 13 14 14 14 14 14 15 15 15 15 15 15 16 16 16 16 17 17 17 17 17 17 17 17 17 17 17 17 17 17 17 17 17 17 17
12 12 13 13 13 13 13 13 13 13 13 13 13 13 13 14 15 15 15 15 15 15 15 16 16 16 17 17 17 17 17 17 17 17 17 17 17 17 17 17 17 17 16
12 12 12 12 12 12 13 13 13 13 13 13 13 12 13 13 14 14 14 15 15 15 15 15 16 16 16 17 17 17 17 17 17 17 17 17 17 17 17 17 16 16 16
11 11 11 11 12 12 12 12 12 12 12 12 13 12 12 12 12 13 14 14 14 14 14 15 15 16 16 16 17 17 17 17 17 17 17 17 17 17 17 17 16 16 16
11 11 11 11 11 11 11 12 12 12 12 12 12 12 12 12 12 12 13 14 14 14 14 14 15 15 16 16 16 17 17 17 17 17 17 17 17 17 17 17 17 16 16
11 10 10 10 10 11 11 11 11 11 11 12 12 12 12 12 12 12 12 13 13 14 14 14 15 15 15 16 16 16 17 17 17 17 17 17 16 17 17 17 17 17 16
10 10 10 10 10 10 10 10 11 11 11 11 11 11 12 12 11 12 12 12 13 13 14 15 15 15 15 16 16 16 16 16 16 17 17 17 16 16 17 17 16 16 17
10 10 9 9 9 9 9 9 10 10 10 10 11 11 11 11 11 11 11 12 12 13 13 14 15 15 15 15 15 16 16 16 16 16 16 16 16 16 16 16 16 16 16
10 9 9 9 9 9 9 9 9 9 9 10 10 10 11 11 11 11 11 11 11 12 13 14 14 15 15 15 15 15 16 16 16 16 16 16 16 16 16 16 16 16 16
10 9 9 9 9 9 9 8 8 8 9 9 9 10 10 10 11 11 11 11 11 11 12 13 14 14 15 15 15 15 15 15 15 15 16 16 16 16 16 16 16 16 16
9 9 9 9 9 9 9 8 8 8 8 8 9 9 9 10 10 10 10 11 11 11 11 13 13 14 14 14 15 15 15 15 15 15 15 16 16 16 16 16 16 16 16
9 9 9 9 9 9 8 8 8 8 8 8 8 8 9 9 9 10 10 10 11 11 11 12 13 13 14 14 14 14 15 15 15 15 15 15 15 16 16 16 16 16 16
9 9 9 8 8 8 8 8 8 8 8 8 8 8 8 8 9 9 9 10 10 10 11 11 12 13 13 13 14 14 14 15 15 15 15 15 15 15 15 15 15 15 16
9 9 8 8 8 8 8 8 8 8 8 8 8 8 8 8 8 8 9 9 10 10 10 11 11 12 12 13 13 13 14 14 14 15 15 15 15 15 15 15 15 15 16
8 8 8 8 8 8 8 8 8 8 8 8 8 8 8 8 8 8 8 9 9 9 10 10 11 11 12 12 13 13 13 13 13 14 14 14 15 15 15 15 15 15 15
8 8 8 8 8 8 8 8 8 8 8 8 8 8 8 7 7 7 8 8 8 9 9 10 10 11 11 12 12 12 13 13 12 13 13 13 14 14 14 15 15 15 15
8 8 8 8 8 8 8 8 8 7 7 8 8 8 8 8 7 7 7 8 8 8 9 9 10 10 11 11 12 12 12 12 13 13 12 12 12 12 13 14 14 14 15
8 8 8 8 8 8 8 8 8 7 7 7 7 7 7 7 7 7 7 7 7 8 8 9 9 10 10 11 11 11 12 12 12 12 12 12 12 12 12 12 13 13 14
7 7 8 8 8 8 8 8 7 7 7 7 7 7 7 7 7 7 6 6 7 8 8 8 9 9 10 10 10 11 11 11 11 11 11 12 11 11 11 11 12 12 12
7 7 8 8 8 8 8 8 7 7 7 7 7 7 7 7 7 6 6 6 6 7 8 8 8 9 9 10 10 10 11 11 11 11 11 11 11 11 11 11 11 11 12
Wind_Speed
2 2 2 3 4 4 3 4 5 6 7 8 11 12 12 14 15 14 14 18 19 20 21 22 24 27 27 27 27 25 24 24 23 22 22 21 21 20 20 19 19 18 18
2 1 1 2 2 3 3 3 4 4 5 5 8 10 12 14 14 16 16 17 20 21 22 23 24 27 29 29 29 28 27 26 25 24 24 23 22 22 21 20 20 19 19
2 1 1 2 2 3 3 3 3 3 4 5 8 9 9 12 13 15 16 16 17 20 22 23 24 25 28 31 30 30 29 28 27 27 26 25 24 23 23 22 21 21 20
5 2 1 2 3 3 2 2 3 3 4 5 6 7 8 9 12 14 16 16 16 17 19 22 24 24 26 30 32 31 30 30 29 29 28 27 26 25 24 23 22 22 21
6 3 2 3 4 2 2 3 3 3 4 6 7 7 8 9 11 12 13 15 17 17 17 19 22 24 25 28 31 32 31 31 31 30 29 29 28 27 26 25 24 23 22
8 5 3 3 3 2 3 3 4 4 4 6 7 8 8 9 9 11 13 11 14 17 18 17 17 19 24 27 29 30 30 30 31 31 31 30 30 29 28 27 26 25 24
9 5 3 4 3 2 4 4 3 4 3 3 3 5 6 8 9 9 9 9 11 13 15 16 16 16 16 23 28 30 30 30 30 31 31 31 31 30 29 29 28 27 26
8 6 4 4 3 2 3 3 2 2 2 2 2 3 4 4 3 6 7 8 9 8 10 14 15 16 16 16 20 27 29 30 30 31 32 33 32 31 31 30 29 29 28
7 6 5 4 4 2 2 3 2 2 3 3 3 3 3 3 4 3 5 6 7 7 8 8 12 16 18 17 19 23 28 30 31 32 33 33 33 32 32 31 31 30 29
6 6 5 4 3 2 2 3 2 2 2 3 3 3 5 4 3 4 3 3 5 6 8 10 11 13 18 17 19 22 26 29 31 33 33 34 34 33 32 32 32 30 29
5 5 4 4 3 3 3 3 3 2 2 2 2 2 3 3 5 4 5 4 3 4 6 8 9 9 15 18 18 21 25 26 29 31 32 33 33 33 31 31 31 30 29
4 5 4 3 3 3 3 3 3 3 2 3 3 3 3 3 3 4 5 5 5 4 5 7 8 9 10 15 20 22 24 25 26 28 30 31 31 32 31 31 31 30 29
4 5 4 4 4 4 4 4 3 4 3 3 3 3 4 4 4 4 5 5 4 4 4 4 6 7 8 11 15 21 23 24 25 26 27 28 29 30 30 30 30 29 28
6 6 5 5 5 5 5 4 3 4 3 4 5 4 4 4 4 4 4 4 5 3 3 4 2 4 5 8 13 17 16 21 23 24 24 26 27 28 28 29 28 28 27
6 6 6 6 6 5 5 4 4 5 4 4 5 5 4 4 4 4 4 4 4 4 3 3 2 1 2 4 8 11 12 17 21 22 22 23 25 26 26 27 27 26 25
6 7 7 7 7 6 6 5 5 5 5 5 4 5 5 4 4 4 4 4 4 4 4 2 2 3 2 1 3 7 10 14 18 20 21 21 22 23 24 24 24 23 23
7 7 8 8 8 8 7 5 6 6 6 7 6 6 6 5 4 4 4 4 4 4 6 4 2 3 2 0 1 2 4 5 8 14 17 18 19 20 21 21 21 21 21
7 8 8 8 9 9 8 7 8 7 7 8 8 7 8 6 5 4 4 5 5 5 5 6 3 2 1 1 2 2 3 4 5 9 13 14 16 17 18 19 19 19 19
8 8 8 9 10 10 9 9 9 9 9 9 9 9 9 7 7 5 5 5 5 5 5 5 4 2 1 1 2 3 4 4 5 7 9 10 12 14 15 16 17 17 17
8 9 9 10 10 10 10 10 10 10 10 9 9 9 9 9 9 8 6 7 6 6 5 5 4 3 2 1 3 4 3 3 4 4 6 7 9 10 11 13 14 15 16
9 9 10 10 10 9 9 10 10 10 10 10 9 9 10 11 12 9 7 7 6 5 5 5 5 3 3 3 4 4 4 4 3 3 5 4 6 6 6 9 11 14 15
9 9 10 10 11 9 11 14 13 11 11 11 11 10 10 12 13 14 14 12 10 8 8 6 5 5 5 4 4 5 6 5 4 4 4 3 3 5 4 5 10 14 15
9 10 10 10 11 12 15 17 17 12 12 12 12 11 10 10 11 10 12 13 13 14 13 9 8 7 6 5 5 7 7 6 4 6 5 3 3 3 3 6 11 14 15
9 9 10 11 11 13 15 15 16 12 11 12 12 12 12 12 11 11 11 11 11 11 12 11 10 9 8 6 6 6 6 6 5 5 4 4 3 3 3 6 8 12 15
9 10 9 11 11 13 15 15 13 9 9 12 12 12 12 13 14 14 12 12 12 11 11 13 12 11 10 9 7 6 8 8 5 4 2 4 4 3 3 3 7 11 14
10 10 10 11 11 13 14 15 12 7 9 10 10 10 14 14 14 14 13 12 13 11 10 9 10 11 10 9 11 10 9 9 6 4 4 5 5 4 3 2 3 6 10
Wind_Direction
263 260 258 261 267 271 276 283 282 276 267 256 247 241 238 235 235 234 234 235 234 233 233 231 226 220 215 210 206 205 204 202 199 196 194 193 192 190 189 188 187 186 185
267 256 259 276 281 277 272 271 275 277 273 267 259 251 247 243 240 236 233 235 237 234 232 231 230 225 220 216 211 207 206 206 203 200 198 198 196 195 195 193 192 192 191
313 287 278 284 285 290 285 284 286 282 279 271 264 258 254 247 242 238 233 230 233 235 233 231 232 229 224 220 216 211 208 207 206 203 201 200 199 198 198 198 197 196 196
358 338 313 302 309 307 298 293 285 286 279 277 273 266 258 252 247 241 235 231 229 232 232 232 231 231 229 224 220 215 210 209 207 205 203 203 202 201 201 201 200 200 200
9 357 322 310 321 314 297 293 287 269 280 282 279 272 261 253 249 246 239 234 230 229 229 231 232 231 229 226 223 218 213 211 210 208 206 205 205 204 203 203 203 202 203
9 4 333 317 317 301 294 288 285 277 269 277 284 281 271 260 248 241 240 235 231 229 228 229 229 230 228 226 223 220 217 214 213 211 209 208 207 207 205 205 204 204 205
5 7 351 328 319 289 282 285 281 288 282 275 287 290 279 262 250 243 237 234 233 232 230 227 226 225 225 224 222 220 219 217 216 215 213 211 209 208 207 207 206 206 207
358 3 355 335 321 301 301 296 267 280 282 273 271 298 306 308 284 251 237 233 235 233 233 230 224 223 223 221 222 220 221 220 220 219 217 213 211 209 208 208 209 209 209
345 350 352 347 344 330 305 298 274 253 278 283 239 255 287 298 317 291 243 238 238 236 237 233 228 226 223 222 223 222 222 221 221 221 220 215 212 210 208 208 209 210 211
332 339 346 352 356 352 328 310 310 252 259 285 288 251 249 263 286 309 299 254 242 241 238 236 233 226 222 221 221 219 222 223 223 222 221 217 213 210 209 209 210 211 211
321 330 334 346 347 340 331 328 326 296 251 259 271 282 278 267 249 263 288 301 300 262 244 236 231 226 221 218 219 220 219 221 223 222 221 218 214 210 210 211 212 212 212
307 314 319 327 323 320 317 312 306 301 278 265 264 260 261 270 278 267 274 296 300 289 262 240 229 227 222 218 219 219 217 218 220 220 220 218 214 210 209 210 212 213 213
292 296 304 301 301 301 303 304 301 298 287 278 271 265 261 259 267 273 276 284 288 289 281 255 229 226 225 219 217 217 216 215 216 216 215 212 210 209 207 208 210 212 212
274 280 283 281 283 289 298 304 298 293 288 284 281 273 269 269 265 264 266 278 290 286 278 283 262 229 227 220 217 213 217 213 213 212 210 208 207 206 203 204 206 209 210
273 276 279 281 280 279 279 284 281 287 292 283 281 279 271 269 271 263 261 261 267 281 285 287 302 303 258 229 218 211 212 212 209 207 206 205 204 202 201 201 203 206 208
272 282 284 283 281 277 272 266 268 274 278 279 274 278 276 271 273 269 261 259 252 256 270 287 297 311 309 281 210 207 207 204 201 198 197 197 197 196 196 198 200 203 206
279 280 282 285 285 281 274 263 262 265 264 271 275 274 277 276 271 268 263 256 253 251 265 283 276 300 308 7 101 148 158 168 183 188 188 188 188 189 191 193 196 198 201
279 279 281 284 283 281 274 267 270 270 261 264 267 267 271 276 270 264 258 256 253 246 253 275 284 294 314 161 134 125 110 116 131 161 170 173 177 181 184 188 190 193 196
280 281 280 280 281 281 279 274 269 269 263 259 258 257 261 264 267 262 254 255 255 253 243 258 276 280 282 155 132 118 110 106 105 125 138 153 165 171 177 182 186 189 191
277 278 278 277 278 278 278 276 273 271 268 262 255 250 251 250 254 257 254 250 250 251 247 250 259 259 253 185 153 153 145 130 118 108 106 117 137 149 162 172 179 183 186
277 276 280 280 277 276 272 267 266 269 267 266 261 250 246 247 248 245 243 241 237 240 239 241 245 243 237 199 186 164 161 143 116 127 126 118 120 122 136 154 165 170 173
277 278 278 278 278 275 271 270 272 271 269 267 268 261 252 255 256 254 252 245 231 230 231 231 235 232 232 220 193 170 159 161 162 157 135 112 107 109 103 125 147 156 160
279 280 279 277 276 273 270 272 274 272 266 265 264 263 262 255 245 243 248 255 247 236 228 226 233 232 224 218 200 185 179 174 159 154 137 115 98 97 70 97 135 147 152
279 280 281 280 278 277 272 270 274 274 268 264 260 258 257 257 250 240 243 247 247 244 237 233 235 236 229 218 209 200 174 145 116 137 133 125 112 92 73 70 110 136 143
280 279 279 279 278 279 276 272 272 272 266 266 263 259 255 255 247 235 238 243 246 247 243 234 229 232 225 214 197 182 171 166 158 155 124 126 128 103 76 62 70 108 128
279 283 283 279 275 277 277 274 271 264 264 266 266 261 255 252 247 235 234 235 240 241 237 234 228 229 227 218 202 199 188 182 161 157 159 134 140 138 115 73 59 83 99
Height
1538 1538 1538 1538 1538 1537 1537 1537 1537 1537 1537 1538 1539 1540 1541 1542 1544 1545 1547 1549 1552 1554 1556 1559 1561 1564 1566 1569 1571 1573 1575 1578 1580 1583 1585 1587 1590 1592 1595 1597 1599 1601 1603
1535 1535 1535 1534 1534 1534 1533 1533 1532 1532 1532 1532 1533 1533 1534 1535 1537 1538 1540 1543 1545 1547 1550 1552 1556 1559 1561 1564 1567 1569 1571 1574 1577 1580 1582 1585 1587 1590 1593 1595 1597 1599 1602
1532 1531 1531 1531 1530 1530 1529 1529 1528 1527 1526 1526 1526 1526 1527 1527 1529 1530 1532 1535 1538 1540 1543 1546 1549 1552 1556 1559 1562 1564 1567 1570 1573 1576 1579 1582 1585 1587 1590 1593 1595 1597 1600
1528 1528 1527 1527 1527 1526 1525 1524 1523 1522 1522 1521 1520 1520 1520 1520 1520 1522 1524 1526 1529 1532 1536 1539 1542 1545 1549 1552 1556 1559 1562 1565 1569 1572 1575 1578 1581 1584 1587 1590 1592 1595 1597
1525 1524 1524 1523 1523 1522 1522 1521 1519 1518 1517 1516 1515 1514 1513 1513 1513 1514 1515 1517 1520 1524 1527 1531 1534 1538 1542 1545 1549 1553 1556 1560 1563 1567 1570 1574 1577 1580 1583 1586 1589 1592 1595
1521 1521 1521 1520 1520 1519 1518 1517 1516 1515 1513 1512 1510 1508 1507 1506 1505 1505 1507 1509 1511 1514 1518 1522 1526 1530 1534 1538 1542 1546 1550 1554 1557 1561 1565 1569 1572 1576 1579 1582 1586 1588 1591
1518 1518 1517 1517 1516 1516 1515 1514 1512 1511 1510 1508 1506 1504 1502 1501 1499 1498 1499 1501 1503 1506 1509 1513 1517 1522 1526 1531 1535 1539 1543 1547 1551 1555 1559 1563 1567 1571 1574 1578 1581 1585 1587
1515 1514 1513 1513 1512 1512 1511 1510 1509 1508 1507 1505 1504 1501 1498 1497 1494 1493 1493 1495 1496 1498 1501 1505 1509 1513 1518 1523 1527 1531 1536 1540 1544 1548 1552 1557 1561 1565 1569 1573 1576 1580 1583
1512 1511 1510 1509 1509 1508 1508 1507 1506 1505 1504 1503 1501 1501 1498 1495 1492 1491 1490 1490 1491 1492 1494 1497 1501 1505 1510 1514 1519 1523 1528 1533 1537 1541 1545 1550 1554 1559 1563 1567 1571 1575 1578
1510 1508 1507 1506 1505 1505 1504 1504 1503 1502 1501 1500 1499 1498 1497 1495 1493 1489 1487 1487 1487 1488 1489 1491 1494 1498 1502 1506 1510 1515 1520 1525 1529 1534 1538 1543 1548 1552 1556 1561 1565 1569 1573
1507 1505 1503 1502 1502 1501 1501 1500 1500 1499 1498 1497 1496 1495 1493 1492 1491 1489 1485 1484 1484 1484 1485 1486 1488 1491 1494 1498 1502 1506 1512 1516 1521 1526 1530 1535 1540 1545 1549 1554 1558 1563 1567
1504 1502 1500 1499 1498 1497 1497 1496 1496 1495 1495 1494 1493 1492 1491 1489 1488 1487 1484 1481 1480 1481 1481 1482 1483 1485 1488 1491 1495 1499 1503 1508 1512 1518 1523 1528 1533 1538 1542 1547 1552 1556 1560
1500 1498 1497 1495 1494 1493 1492 1491 1491 1491 1490 1490 1489 1488 1487 1486 1485 1484 1482 1480 1479 1478 1478 1478 1478 1480 1482 1485 1488 1491 1496 1500 1504 1510 1515 1520 1525 1531 1536 1540 1545 1550 1554
1497 1495 1494 1492 1490 1489 1487 1486 1486 1485 1485 1484 1484 1484 1483 1483 1482 1481 1480 1479 1477 1476 1475 1475 1475 1476 1477 1479 1482 1486 1489 1493 1498 1503 1508 1513 1519 1524 1529 1534 1539 1543 1547
1494 1492 1490 1489 1487 1485 1484 1482 1481 1480 1479 1479 1479 1479 1479 1478 1478 1478 1477 1476 1476 1474 1472 1472 1473 1473 1474 1476 1478 1481 1484 1488 1492 1497 1502 1507 1513 1518 1523 1528 1532 1537 1541
1491 1488 1487 1485 1483 1481 1480 1478 1477 1476 1475 1474 1473 1473 1473 1473 1473 1473 1473 1473 1472 1472 1470 1469 1470 1471 1471 1472 1474 1477 1480 1484 1488 1493 1497 1502 1507 1512 1517 1522 1526 1531 1535
1487 1484 1482 1480 1478 1477 1475 1474 1472 1471 1470 1469 1468 1468 1467 1468 1468 1468 1469 1469 1468 1468 1467 1466 1467 1467 1468 1469 1471 1473 1476 1480 1484 1488 1493 1498 1503 1508 1512 1517 1521 1525 1529
1482 1479 1477 1475 1473 1471 1470 1468 1467 1465 1464 1463 1463 1462 1462 1462 1462 1463 1463 1464 1464 1464 1464 1463 1463 1465 1465 1466 1468 1470 1473 1476 1480 1484 1489 1493 1498 1503 1507 1512 1516 1520 1524
1476 1474 1471 1469 1466 1465 1463 1462 1461 1459 1458 1457 1457 1456 1456 1456 1456 1457 1457 1458 1459 1460 1460 1460 1460 1461 1463 1464 1466 1468 1470 1473 1477 1480 1485 1489 1494 1498 1503 1507 1511 1515 1520
1470 1467 1465 1462 1460 1458 1457 1456 1454 1453 1452 1451 1451 1450 1450 1450 1450 1451 1451 1452 1454 1455 1456 1456 1457 1458 1459 1461 1463 1465 1467 1470 1474 1477 1481 1485 1489 1494 1498 1502 1507 1511 1515
1464 1461 1458 1455 1453 1452 1450 1449 1448 1447 1446 1445 1444 1444 1444 1444 1444 1445 1446 1447 1448 1449 1450 1452 1453 1454 1455 1457 1460 1462 1465 1467 1471 1474 1478 1481 1485 1489 1493 1497 1502 1506 1511
1457 1454 1451 1449 1447 1446 1445 1444 1442 1440 1439 1438 1437 1437 1437 1437 1437 1438 1439 1440 1442 1443 1445 1447 1448 1450 1451 1454 1456 1458 1461 1464 1468 1472 1475 1478 1481 1485 1489 1493 1497 1502 1506
1451 1448 1446 1443 1441 1440 1439 1438 1436 1434 1433 1431 1431 1430 1430 1430 1430 1431 1432 1434 1435 1437 1439 1441 1443 1445 1447 1450 1452 1454 1457 1461 1464 1467 1472 1475 1479 1482 1486 1490 1494 1498 1503
1445 1442 1440 1438 1436 1434 1433 1432 1430 1428 1426 1425 1424 1423 1423 1423 1423 1424 1424 1426 1427 1429 1432 1435 1437 1440 1443 1445 1448 1450 1453 1457 1461 1465 1469 1473 1476 1480 1483 1487 1491 1495 1499
1440 1437 1435 1432 1430 1429 1428 1426 1424 1421 1419 1418 1417 1416 1415 1415 1415 1416 1417 1417 1419 1422 1425 1428 1431 1434 1437 1440 1442 1446 1449 1452 1456 1461 1465 1469 1473 1477 1481 1485 1489 1493 1497
1434 1432 1429 1427 1425 1423 1421 1420 1418 1415 1413 1411 1410 1409 1408 1407 1407 1408 1409 1409 1411 1414 1418 1421 1424 1428 1431 1434 1437 1440 1443 1447 1451 1456 1460 1466 1470 1474 1479 1483 1486 1490 1494